TimeCDT,TemperatureF,Dew PointF,Humidity,Sea Level PressureIn,VisibilityMPH,Wind Direction,Wind SpeedMPH,Gust SpeedMPH,PrecipitationIn,Events,Conditions,WindDirDegrees,DateUTC
12:56 AM,57.9,55.9,93,29.98,10.0,Calm,Calm,-,N/A,,Clear,0,2011-10-27 05:56:00
1:56 AM,55.9,54.0,93,29.97,10.0,Calm,Calm,-,N/A,,Clear,0,2011-10-27 06:56:00
2:56 AM,55.9,54.0,93,29.96,10.0,Calm,Calm,-,N/A,,Clear,0,2011-10-27 07:56:00
3:56 AM,55.0,52.0,89,29.94,10.0,Calm,Calm,-,N/A,,Clear,0,2011-10-27 08:56:00
4:56 AM,52.0,50.0,93,29.94,10.0,Calm,Calm,-,N/A,,Clear,0,2011-10-27 09:56:00
5:56 AM,55.0,52.0,89,29.94,10.0,Calm,Calm,-,N/A,,Clear,0,2011-10-27 10:56:00
6:56 AM,54.0,51.1,90,29.94,10.0,Calm,Calm,-,N/A,,Partly Cloudy,0,2011-10-27 11:56:00
7:56 AM,57.0,54.0,89,29.94,10.0,Calm,Calm,-,N/A,,Clear,0,2011-10-27 12:56:00
8:56 AM,68.0,57.2,68,29.95,10.0,Calm,Calm,-,N/A,,Partly Cloudy,0,2011-10-27 13:56:00
9:56 AM,73.4,51.8,47,29.96,10.0,Calm,Calm,-,N/A,,Clear,0,2011-10-27 14:56:00
10:56 AM,75.2,53.6,47,29.96,10.0,Calm,Calm,-,N/A,,Partly Cloudy,0,2011-10-27 15:56:00
11:56 AM,78.8,53.6,42,29.95,10.0,West,8.1,-,N/A,,Partly Cloudy,270,2011-10-27 16:56:00
12:56 PM,79.0,53.1,40,29.92,10.0,Variable,4.6,-,N/A,,Partly Cloudy,0,2011-10-27 17:56:00
1:56 PM,81.0,53.1,38,29.90,10.0,NNW,6.9,-,N/A,,Scattered Clouds,340,2011-10-27 18:56:00
2:56 PM,79.0,52.0,39,29.89,10.0,West,3.5,-,N/A,,Scattered Clouds,260,2011-10-27 19:56:00
3:56 PM,81.0,52.0,36,29.88,10.0,NNW,6.9,-,N/A,,Partly Cloudy,340,2011-10-27 20:56:00
4:56 PM,79.0,52.0,39,29.88,10.0,Calm,Calm,-,N/A,,Partly Cloudy,0,2011-10-27 21:56:00
5:56 PM,73.0,59.0,61,29.90,10.0,South,8.1,-,N/A,,Partly Cloudy,180,2011-10-27 22:56:00
6:56 PM,69.1,59.0,70,29.92,10.0,South,5.8,-,N/A,,Partly Cloudy,180,2011-10-27 23:56:00
7:56 PM,66.9,60.1,79,29.93,10.0,SSW,5.8,-,N/A,,Scattered Clouds,200,2011-10-28 00:56:00
8:56 PM,64.4,60.8,88,29.94,10.0,Calm,Calm,-,N/A,,Partly Cloudy,0,2011-10-28 01:56:00
9:56 PM,63.0,59.0,87,29.94,10.0,Calm,Calm,-,N/A,,Partly Cloudy,0,2011-10-28 02:56:00
10:56 PM,61.0,57.9,90,29.93,10.0,Calm,Calm,-,N/A,,Clear,0,2011-10-28 03:56:00
11:56 PM,61.0,57.9,90,29.92,10.0,Calm,Calm,-,N/A,,Clear,0,2011-10-28 04:56:00